{"data":{"norad_id":66131,"epoch":"2026-09-20T13:25:54.674976Z","epoch_age_seconds":95282,"freshness":"FRESH","line1":"1 66131U 25237T   26263.55966059  .00017122  00000+0  51651-3 0  9993","line2":"2 66131  53.1554 211.0963 0001726  89.4332 270.6868 15.34412825 52491","mean_motion":15.34412825,"eccentricity":0.0001726,"inclination_deg":53.1554,"raan_deg":211.0963,"arg_perigee_deg":89.4332,"mean_anomaly_deg":270.6868,"bstar":0.00051651,"rev_number":5249,"period_min":93.846973678677,"perigee_km":461.48439942363,"apogee_km":463.8458443161,"semimajor_km":6840.8021218699,"source":"CELESTRAK","updated_at":"2026-09-21T09:00:35.809826Z"}}